TimeCEST,TemperatureF,Dew PointF,Humidity,Sea Level PressureIn,VisibilityMPH,Wind Direction,Wind SpeedMPH,Gust SpeedMPH,PrecipitationIn,Events,Conditions,WindDirDegrees,DateUTC
12:15 AM,64.4,60.8,88,30.09,-9999.0,South,1.2,-,N/A,,Clear,170,2012-10-02 22:15:00
12:45 AM,62.6,59.0,88,30.09,6.2,SSE,1.2,-,N/A,,Partly Cloudy,150,2012-10-02 22:45:00
1:15 AM,62.6,59.0,88,30.09,6.2,East,1.2,-,N/A,,Partly Cloudy,100,2012-10-02 23:15:00
1:45 AM,60.8,59.0,94,30.09,6.2,East,3.5,-,N/A,,Partly Cloudy,100,2012-10-02 23:45:00
2:15 AM,60.8,59.0,94,30.09,6.2,SSE,2.3,-,N/A,,Partly Cloudy,150,2012-10-03 00:15:00
2:45 AM,60.8,59.0,94,30.09,6.2,SSE,2.3,-,N/A,,Partly Cloudy,160,2012-10-03 00:45:00
3:15 AM,60.8,59.0,94,30.09,-9999.0,SSE,3.5,-,N/A,,Clear,160,2012-10-03 01:15:00
3:45 AM,60.8,59.0,94,30.09,-9999.0,SSE,4.6,-,N/A,,Clear,160,2012-10-03 01:45:00
4:15 AM,60.8,59.0,94,30.09,6.2,SE,2.3,-,N/A,,Partly Cloudy,130,2012-10-03 02:15:00
4:45 AM,60.8,59.0,94,30.06,6.2,SE,2.3,-,N/A,,Partly Cloudy,130,2012-10-03 02:45:00
5:15 AM,59.0,59.0,100,30.06,6.2,SSE,2.3,-,N/A,,Partly Cloudy,150,2012-10-03 03:15:00
5:45 AM,59.0,57.2,94,30.06,6.2,SSE,2.3,-,N/A,,Scattered Clouds,150,2012-10-03 03:45:00
6:15 AM,59.0,57.2,94,30.06,6.2,NE,2.3,-,N/A,,Scattered Clouds,40,2012-10-03 04:15:00
6:45 AM,59.0,55.4,88,30.06,6.2,ENE,2.3,-,N/A,,Scattered Clouds,60,2012-10-03 04:45:00
7:15 AM,59.0,55.4,88,30.06,6.2,NE,2.3,-,N/A,,Scattered Clouds,50,2012-10-03 05:15:00
7:45 AM,59.0,55.4,88,30.06,6.2,East,2.3,-,N/A,,Partly Cloudy,80,2012-10-03 05:45:00
8:15 AM,60.8,59.0,94,30.06,6.2,NE,3.5,-,N/A,,Partly Cloudy,50,2012-10-03 06:15:00
8:45 AM,62.6,60.8,94,30.09,6.2,NNE,1.2,-,N/A,,Partly Cloudy,30,2012-10-03 06:45:00
9:15 AM,64.4,62.6,94,30.09,6.2,NNE,2.3,-,N/A,,Partly Cloudy,20,2012-10-03 07:15:00
9:45 AM,64.4,60.8,88,30.09,6.2,North,1.2,-,N/A,,Scattered Clouds,10,2012-10-03 07:45:00
10:15 AM,66.2,62.6,88,30.09,6.2,NNW,2.3,-,N/A,,Scattered Clouds,330,2012-10-03 08:15:00
10:45 AM,68.0,62.6,83,30.12,6.2,NNW,1.2,-,N/A,,Scattered Clouds,330,2012-10-03 08:45:00
11:15 AM,69.8,60.8,73,30.12,6.2,SSE,4.6,-,N/A,,Scattered Clouds,160,2012-10-03 09:15:00
11:45 AM,71.6,60.8,69,30.12,6.2,SSW,5.8,-,N/A,,Scattered Clouds,210,2012-10-03 09:45:00
12:15 PM,73.4,60.8,65,30.12,6.2,South,5.8,-,N/A,,Scattered Clouds,190,2012-10-03 10:15:00
12:45 PM,73.4,59.0,61,30.12,6.2,SSW,5.8,-,N/A,,Scattered Clouds,210,2012-10-03 10:45:00
1:15 PM,73.4,59.0,61,30.12,6.2,SSW,5.8,-,N/A,,Scattered Clouds,200,2012-10-03 11:15:00
1:45 PM,75.2,59.0,57,30.12,6.2,SW,3.5,-,N/A,,Partly Cloudy,230,2012-10-03 11:45:00
2:15 PM,75.2,59.0,57,30.09,6.2,SW,4.6,-,N/A,,Scattered Clouds,230,2012-10-03 12:15:00
2:45 PM,75.2,60.8,61,30.09,6.2,WSW,3.5,-,N/A,,Scattered Clouds,250,2012-10-03 12:45:00
3:15 PM,75.2,59.0,57,30.09,6.2,SSW,3.5,-,N/A,,Scattered Clouds,200,2012-10-03 13:15:00
3:45 PM,75.2,59.0,57,30.09,6.2,SW,3.5,-,N/A,,Scattered Clouds,220,2012-10-03 13:45:00
4:15 PM,75.2,59.0,57,30.06,6.2,WSW,2.3,-,N/A,,Scattered Clouds,250,2012-10-03 14:15:00
4:45 PM,75.2,60.8,61,30.06,6.2,SW,5.8,-,N/A,,Scattered Clouds,230,2012-10-03 14:45:00
5:15 PM,71.6,62.6,73,30.06,6.2,WSW,8.1,-,N/A,,Scattered Clouds,240,2012-10-03 15:15:00
5:45 PM,71.6,62.6,73,30.06,6.2,WSW,8.1,-,N/A,,Partly Cloudy,250,2012-10-03 15:45:00
6:15 PM,71.6,60.8,69,30.06,6.2,WSW,6.9,-,N/A,,Partly Cloudy,240,2012-10-03 16:15:00
6:45 PM,69.8,62.6,78,30.06,6.2,SW,4.6,-,N/A,,Partly Cloudy,230,2012-10-03 16:45:00
7:15 PM,68.0,62.6,83,30.09,6.2,SW,2.3,-,N/A,,Partly Cloudy,220,2012-10-03 17:15:00
7:45 PM,68.0,60.8,78,30.09,6.2,SSW,2.3,-,N/A,,Partly Cloudy,200,2012-10-03 17:45:00
8:15 PM,68.0,62.6,83,30.09,-9999.0,South,2.3,-,N/A,,Clear,180,2012-10-03 18:15:00
8:45 PM,66.2,62.6,88,30.09,6.2,Calm,Calm,-,N/A,,Partly Cloudy,0,2012-10-03 18:45:00
9:15 PM,66.2,62.6,88,30.09,6.2,East,2.3,-,N/A,,Partly Cloudy,90,2012-10-03 19:15:00
9:45 PM,64.4,60.8,88,30.09,6.2,SE,2.3,-,N/A,,Partly Cloudy,140,2012-10-03 19:45:00
10:15 PM,64.4,60.8,88,30.09,6.2,SE,2.3,-,N/A,,Partly Cloudy,130,2012-10-03 20:15:00
10:45 PM,64.4,60.8,88,30.12,-9999.0,Calm,Calm,-,N/A,,Clear,0,2012-10-03 20:45:00
11:15 PM,64.4,60.8,88,30.12,-9999.0,East,4.6,-,N/A,,Clear,100,2012-10-03 21:15:00
11:45 PM,64.4,60.8,88,30.12,-9999.0,SSE,2.3,-,N/A,,Clear,160,2012-10-03 21:45:00